Location: Brienzwiler
(46.7508°N, 8.1014°E)
Time: 01:31:53
(UTC+00:00)

DELTA 2 R/B (1) - Pass Details

Date: 05 July 2020
Orbit: 790 x 803 km, 39.6° (Epoch: 11 August)

Event Time Altitude Azimuth Distance (km) Brightness Sun altitude
Rises 22:21:54 0° 244° (WSW) 3,286 6.7 -18.8°
Reaches altitude 10° 22:24:31 10° 236° (WSW) 2,360 5.9 -18.9°
Maximum altitude 22:29:36 37° 171° (S) 1,216 4.0 -19.1°
Enters shadow 22:30:01 37° 160° (SSE) 1,228 4.0 -19.2°
Exits shadow 22:36:25 - 99° (E) 2,965 6.3 -19.4°
Sets 22:37:21 0° 97° (E) 3,302 6.6 -19.5°
